TimeCST,TemperatureF,Dew PointF,Humidity,Sea Level PressureIn,VisibilityMPH,Wind Direction,Wind SpeedMPH,Gust SpeedMPH,PrecipitationIn,Events,Conditions,WindDirDegrees,DateUTC
12:52 AM,28.9,23.0,78,30.20,10.0,Calm,Calm,-,N/A,,Clear,0,2013-12-01 06:52:00
1:52 AM,28.0,24.1,85,30.20,10.0,Calm,Calm,-,N/A,,Clear,0,2013-12-01 07:52:00
2:52 AM,26.1,21.9,84,30.20,10.0,WNW,3.5,-,N/A,,Clear,300,2013-12-01 08:52:00
3:52 AM,21.9,19.9,92,30.20,10.0,Calm,Calm,-,N/A,,Clear,0,2013-12-01 09:52:00
4:52 AM,21.0,19.0,92,30.20,10.0,NNW,4.6,-,N/A,,Clear,330,2013-12-01 10:52:00
5:52 AM,19.0,18.0,96,30.21,10.0,Calm,Calm,-,N/A,,Clear,0,2013-12-01 11:52:00
6:52 AM,21.0,19.0,92,30.21,9.0,North,3.5,-,N/A,,Clear,360,2013-12-01 12:52:00
7:52 AM,21.9,19.9,92,30.22,9.0,SW,3.5,-,N/A,,Clear,220,2013-12-01 13:52:00
8:52 AM,26.1,23.0,88,30.22,10.0,Calm,Calm,-,N/A,,Mostly Cloudy,0,2013-12-01 14:52:00
9:52 AM,30.9,25.0,79,30.19,10.0,East,4.6,-,N/A,,Overcast,80,2013-12-01 15:52:00
10:52 AM,32.0,24.1,73,30.18,10.0,SE,4.6,-,N/A,,Overcast,130,2013-12-01 16:52:00
11:52 AM,35.1,25.0,67,30.15,10.0,East,3.5,-,N/A,,Overcast,100,2013-12-01 17:52:00
12:52 PM,36.0,25.0,64,30.12,10.0,ESE,4.6,-,N/A,,Overcast,120,2013-12-01 18:52:00
1:52 PM,37.9,25.0,60,30.09,10.0,Calm,Calm,-,N/A,,Overcast,0,2013-12-01 19:52:00
2:52 PM,39.0,25.0,57,30.05,10.0,East,4.6,-,N/A,,Overcast,100,2013-12-01 20:52:00
3:52 PM,39.0,25.0,57,30.03,10.0,SE,6.9,-,N/A,,Overcast,130,2013-12-01 21:52:00
4:52 PM,37.0,25.0,62,30.02,10.0,ESE,4.6,-,N/A,,Overcast,120,2013-12-01 22:52:00
5:52 PM,37.0,25.0,62,30.01,10.0,SE,3.5,-,N/A,,Overcast,140,2013-12-01 23:52:00
6:52 PM,34.0,25.0,70,29.99,10.0,ESE,4.6,-,N/A,,Overcast,110,2013-12-02 00:52:00
7:52 PM,34.0,25.0,70,29.96,10.0,SE,5.8,-,N/A,,Mostly Cloudy,140,2013-12-02 01:52:00
8:52 PM,28.9,23.0,78,29.95,10.0,ESE,6.9,-,N/A,,Partly Cloudy,120,2013-12-02 02:52:00
9:52 PM,28.0,23.0,81,29.93,10.0,ESE,8.1,-,N/A,,Clear,120,2013-12-02 03:52:00
10:52 PM,30.0,25.0,82,29.89,10.0,SE,6.9,-,N/A,,Clear,130,2013-12-02 04:52:00
11:52 PM,28.0,24.1,85,29.88,10.0,ESE,8.1,-,N/A,,Clear,120,2013-12-02 05:52:00